Wind_Speed
14 14 15 15 15 15 15 14 13 13 12 12 11 11 11 11 11 11 11 10 10 10 9 9 9 9 9 10 10 9 9 9 9 9 8 8 8 8 8 9 9 9 9
15 15 16 16 16 16 16 16 15 14 14 13 13 13 12 12 12 12 12 12 12 11 11 11 11 11 11 11 11 11 10 10 10 10 10 10 10 9 9 9 9 10 10
17 17 17 17 17 17 17 17 17 17 16 15 15 14 14 14 14 14 14 14 13 13 13 13 13 12 12 12 12 12 12 12 12 12 11 12 11 11 11 11 11 11 11
19 18 19 19 19 19 19 19 19 18 18 18 17 17 16 16 16 15 15 15 15 15 15 15 15 14 14 14 14 14 14 13 13 13 13 13 13 13 13 12 12 13 13
20 20 20 21 21 21 21 21 20 20 20 20 20 19 19 18 18 17 17 16 17 17 16 16 16 16 16 16 16 16 16 15 15 15 15 15 15 14 14 14 14 14 14
22 22 22 22 22 23 23 23 22 22 22 22 22 21 21 20 20 20 19 18 18 18 18 18 18 18 19 19 18 18 18 17 17 17 17 17 16 16 16 16 16 16 16
23 23 23 23 23 24 24 24 24 24 24 24 23 23 23 22 22 22 22 21 20 20 20 21 21 21 20 21 21 20 20 20 19 19 19 19 19 19 18 18 18 18 18
24 24 24 24 24 25 25 26 26 25 25 25 25 25 24 24 24 24 24 23 23 23 23 23 23 23 23 23 23 23 23 22 21 21 21 21 21 21 21 20 20 20 20
24 25 25 25 25 25 25 26 27 27 27 26 26 27 27 26 26 26 26 25 25 25 25 25 25 25 25 25 25 25 25 24 24 23 23 23 23 23 23 22 22 22 22
26 25 26 26 26 26 26 27 27 27 28 28 28 28 28 28 28 28 27 27 27 27 27 27 27 27 27 27 27 27 27 27 26 25 25 25 25 25 25 24 24 24 24
27 27 27 27 27 28 28 28 28 29 29 29 29 29 29 29 29 29 29 29 29 28 28 28 28 29 29 29 29 29 29 29 28 28 27 26 26 27 27 26 26 26 26
28 29 29 29 29 29 29 30 30 30 31 31 31 30 30 30 30 30 29 29 29 30 30 30 30 30 30 30 30 30 30 30 30 29 29 29 29 29 29 28 28 28 28
30 30 31 31 31 31 31 32 32 32 32 32 32 32 32 32 32 32 31 31 31 31 31 31 31 31 31 31 31 32 32 32 32 31 31 31 31 31 31 30 30 30 30
32 32 33 33 33 33 33 34 34 34 33 34 34 34 34 34 34 34 34 33 33 33 33 33 33 33 33 33 33 33 34 34 34 33 33 33 33 33 33 32 32 32 32
34 35 35 35 36 36 36 36 36 36 35 35 36 36 36 36 36 37 36 36 36 36 36 36 36 35 35 35 35 35 35 35 35 35 35 35 35 35 35 34 34 34 34
36 37 37 37 37 37 38 38 38 38 37 37 37 38 37 38 38 39 39 39 39 38 38 38 38 38 38 37 37 37 37 37 37 37 38 38 38 38 38 38 37 37 37
37 38 38 39 39 39 39 39 39 39 39 38 38 39 39 40 40 40 41 41 41 41 41 41 41 40 40 40 40 40 40 40 40 40 40 40 40 40 40 40 40 39 39
37 38 38 39 40 40 40 40 40 40 40 40 39 40 40 41 41 41 42 43 44 44 44 43 43 43 43 43 43 43 42 43 42 42 42 43 43 42 42 42 42 41 41
38 38 38 39 39 40 40 40 41 41 41 41 41 41 42 42 43 43 44 45 45 46 46 46 45 45 45 45 45 45 45 45 45 45 45 45 45 45 44 44 43 43 43
38 38 38 38 38 39 40 41 41 42 42 42 42 42 43 44 44 46 46 47 47 47 48 48 47 47 47 47 47 47 47 47 46 47 47 47 47 46 46 46 46 45 45
38 38 38 38 39 39 40 41 42 43 43 43 43 44 44 45 45 47 47 48 49 49 49 49 49 49 49 49 49 48 48 48 48 47 47 47 47 47 48 48 48 47 47
38 38 38 39 39 39 40 42 43 44 44 45 45 45 46 46 47 48 49 50 50 51 50 51 51 51 51 51 51 51 51 50 49 48 48 48 48 48 49 49 49 49 48
37 38 39 39 40 40 41 43 44 44 46 46 46 46 47 48 49 49 50 50 51 52 52 51 52 52 51 51 52 52 52 51 51 50 49 49 49 50 50 50 50 50 50
38 39 40 40 41 41 42 44 45 46 47 47 48 48 48 48 49 50 50 51 52 52 53 52 52 53 54 53 53 53 53 53 52 52 50 50 49 50 50 50 51 51 52
39 39 40 41 42 43 44 45 46 47 47 48 48 49 49 49 50 51 51 52 52 52 53 53 54 54 54 54 53 53 53 53 53 53 52 50 50 50 51 51 51 52 52
40 40 41 42 43 43 44 45 46 47 47 48 48 49 50 50 50 52 52 52 52 52 53 53 54 54 54 54 54 54 54 54 53 53 53 53 52 51 51 51 51 52 52
Wind_Direction
256 257 256 254 253 253 252 252 252 253 254 255 257 259 260 261 263 265 269 271 270 269 269 272 272 271 272 271 271 273 276 276 276 276 276 282 288 292 294 297 299 300 301
258 259 258 256 255 253 252 252 252 254 255 256 258 260 261 262 263 266 268 268 266 266 267 269 271 273 273 275 275 276 276 276 277 276 277 280 284 287 289 293 295 298 298
260 260 259 257 255 254 253 253 253 254 255 256 258 261 262 263 264 266 268 266 265 266 267 269 271 273 274 275 277 280 280 276 276 275 276 278 281 285 287 289 292 294 295
260 259 260 259 257 256 254 254 254 255 255 256 258 261 263 264 265 266 267 267 268 268 269 269 271 272 274 275 276 278 278 278 276 275 277 278 280 282 285 287 289 291 292
261 261 261 260 259 257 256 255 255 255 256 257 258 260 262 263 265 267 267 267 268 269 269 270 271 272 273 274 276 277 277 277 276 276 276 277 279 281 283 284 286 289 291
263 263 263 262 260 259 257 256 256 257 257 258 258 259 260 262 264 266 267 267 268 269 269 270 271 272 273 274 275 276 277 276 276 276 276 276 277 279 281 283 285 287 289
264 265 265 264 262 260 259 257 257 258 258 259 259 259 260 261 264 266 266 266 267 268 269 270 271 272 274 275 275 275 275 276 276 276 275 276 277 279 281 282 283 285 286
265 266 266 264 264 262 259 258 259 259 260 260 260 261 261 262 263 265 266 266 266 267 268 268 269 271 272 274 275 275 274 273 274 275 274 275 275 277 278 280 281 283 284
265 266 266 265 264 263 261 260 260 260 261 262 262 263 263 264 264 265 266 266 266 266 267 268 269 270 271 272 273 274 274 272 273 275 275 275 276 276 277 278 280 281 282
264 265 265 265 264 263 262 261 261 262 263 263 264 264 264 264 265 266 267 267 267 267 268 269 269 270 270 271 272 273 273 272 273 274 275 275 276 276 276 277 278 279 281
265 264 264 265 264 263 264 263 262 262 263 264 264 264 264 265 266 266 266 267 268 268 269 269 270 271 271 271 271 271 272 273 273 274 274 275 275 275 276 277 277 278 278
265 264 264 264 265 265 264 264 264 263 264 264 264 264 265 265 266 266 266 267 268 269 269 270 270 272 273 273 272 271 271 272 272 273 274 274 274 275 274 276 276 276 277
265 265 265 265 266 266 265 265 264 264 264 263 264 264 265 265 266 267 267 267 268 269 269 271 272 272 273 273 272 271 271 272 272 272 273 273 274 275 274 275 275 276 276
267 266 267 267 267 267 266 264 264 263 263 263 264 264 264 264 265 267 267 268 269 270 270 270 272 273 273 274 274 273 272 272 272 271 272 273 273 274 274 274 275 275 275
269 268 268 268 268 268 267 266 264 263 263 263 264 265 265 265 265 266 267 268 269 270 270 271 271 272 273 274 274 274 273 272 272 272 272 272 273 274 274 274 274 275 274
271 271 271 270 269 268 267 266 265 263 263 264 264 265 266 266 266 267 267 268 269 270 270 271 272 272 273 274 274 274 273 272 272 272 272 272 272 272 273 273 274 274 274
272 273 273 272 271 270 269 267 265 263 263 263 264 265 266 267 268 268 268 269 270 270 271 271 272 273 273 274 274 274 273 271 271 272 272 272 272 272 272 273 273 273 274
274 275 274 274 271 270 269 266 265 264 264 264 264 265 266 268 269 269 269 270 271 271 271 271 272 273 273 274 274 274 273 272 271 272 273 273 273 272 272 273 273 273 273
275 276 275 275 272 270 268 266 264 263 263 264 264 265 267 268 269 270 269 270 271 271 270 271 272 272 273 273 273 274 273 273 272 272 272 273 273 273 272 272 273 273 272
276 277 276 276 275 272 269 266 264 264 264 264 265 265 267 268 269 270 271 270 270 270 270 270 271 272 272 272 273 273 273 273 273 273 273 273 273 273 273 272 272 272 272
275 276 276 277 275 273 270 268 266 266 266 266 266 266 268 269 270 271 271 271 271 270 270 271 271 271 272 272 272 272 272 273 273 274 273 273 273 273 273 273 272 271 271
275 275 275 276 275 274 272 270 268 267 267 266 266 267 269 270 271 271 272 272 271 271 271 271 271 271 271 271 272 272 272 272 273 274 274 273 273 273 272 272 272 271 270
274 275 275 275 275 275 274 272 270 269 268 267 267 268 270 271 272 273 273 272 271 271 272 272 272 272 271 271 271 272 272 272 273 272 273 274 274 273 273 272 271 272 271
274 274 275 275 275 275 275 274 273 271 269 268 268 268 270 272 273 273 273 272 271 272 272 272 271 272 272 272 271 272 272 273 273 273 273 275 275 274 274 273 272 271 271
273 274 275 276 276 276 276 275 274 273 272 270 269 270 271 274 275 274 274 273 271 272 272 272 271 272 272 272 272 271 272 272 273 274 273 273 275 275 275 274 273 272 271
274 274 275 276 277 277 276 276 275 274 273 273 272 271 272 274 276 275 275 274 272 272 272 272 271 272 272 272 272 271 271 272 272 273 273 273 274 275 275 274 273 272 271
Height
5852 5852 5853 5854 5855 5855 5856 5857 5857 5858 5858 5859 5859 5860 5860 5860 5861 5861 5861 5861 5861 5861 5862 5862 5862 5862 5862 5862 5862 5862 5861 5861 5861 5861 5861 5861 5861 5860 5860 5860 5859 5859 5859
5850 5850 5851 5851 5852 5853 5854 5854 5855 5856 5856 5857 5857 5858 5858 5859 5859 5859 5859 5860 5860 5860 5860 5860 5861 5861 5861 5860 5860 5860 5860 5860 5860 5860 5860 5859 5859 5859 5858 5858 5858 5857 5857
5847 5848 5848 5849 5849 5850 5851 5852 5853 5853 5854 5855 5855 5856 5856 5857 5857 5857 5858 5858 5858 5858 5858 5858 5859 5859 5859 5858 5858 5858 5858 5858 5858 5858 5858 5858 5857 5857 5857 5856 5856 5855 5855
5844 5845 5845 5846 5846 5847 5848 5849 5850 5850 5851 5852 5852 5853 5854 5854 5855 5855 5855 5856 5856 5856 5856 5856 5856 5856 5856 5856 5856 5856 5856 5856 5856 5856 5856 5856 5855 5855 5855 5854 5854 5853 5853
5840 5841 5842 5842 5843 5844 5844 5845 5846 5847 5848 5849 5849 5850 5850 5851 5852 5852 5853 5853 5853 5853 5854 5854 5854 5854 5854 5854 5853 5853 5853 5853 5853 5853 5853 5853 5853 5852 5852 5851 5851 5850 5850
5836 5837 5838 5838 5839 5840 5840 5841 5842 5843 5844 5845 5846 5846 5847 5848 5848 5849 5849 5849 5850 5850 5850 5851 5851 5851 5851 5850 5850 5850 5850 5850 5850 5850 5850 5850 5850 5849 5849 5848 5848 5847 5847
5832 5832 5833 5834 5834 5835 5836 5837 5838 5839 5840 5841 5841 5842 5843 5844 5844 5845 5845 5846 5846 5846 5847 5847 5847 5847 5847 5847 5847 5847 5847 5846 5846 5847 5847 5846 5846 5846 5845 5845 5844 5844 5843
5827 5828 5828 5829 5830 5830 5831 5832 5833 5834 5835 5836 5837 5838 5838 5839 5840 5840 5841 5841 5842 5842 5843 5843 5843 5843 5843 5843 5843 5843 5843 5843 5843 5843 5843 5842 5842 5842 5841 5841 5840 5840 5839
5822 5823 5823 5824 5825 5825 5826 5827 5828 5829 5830 5831 5832 5833 5834 5834 5835 5836 5836 5837 5837 5837 5838 5838 5838 5838 5838 5838 5838 5838 5838 5838 5838 5838 5838 5838 5837 5837 5837 5836 5836 5836 5835
5817 5817 5818 5819 5819 5820 5821 5822 5823 5824 5825 5826 5826 5827 5828 5829 5830 5830 5831 5831 5832 5832 5832 5832 5833 5833 5833 5833 5833 5833 5833 5833 5833 5833 5833 5833 5832 5832 5832 5831 5831 5831 5830
5811 5812 5812 5813 5814 5815 5816 5816 5817 5818 5819 5820 5821 5821 5822 5823 5824 5825 5825 5825 5826 5826 5827 5827 5827 5827 5827 5827 5827 5827 5827 5827 5828 5828 5828 5828 5827 5827 5826 5826 5826 5825 5825
5805 5805 5806 5807 5808 5809 5810 5810 5811 5812 5813 5814 5815 5815 5816 5817 5818 5818 5819 5819 5820 5820 5820 5821 5821 5821 5821 5821 5821 5821 5821 5821 5821 5822 5822 5821 5821 5821 5820 5820 5820 5820 5819
5798 5799 5799 5800 5801 5802 5803 5804 5804 5805 5806 5807 5808 5809 5810 5810 5811 5812 5812 5813 5813 5814 5814 5814 5814 5814 5814 5814 5814 5814 5814 5815 5815 5815 5815 5815 5814 5814 5814 5814 5813 5813 5813
5790 5791 5792 5792 5793 5794 5795 5796 5797 5798 5799 5800 5801 5802 5803 5803 5804 5805 5805 5806 5806 5807 5807 5807 5807 5807 5807 5807 5807 5807 5808 5807 5807 5808 5808 5807 5807 5807 5807 5807 5807 5806 5806
5782 5783 5784 5784 5784 5786 5786 5787 5789 5790 5791 5792 5793 5794 5795 5796 5796 5797 5797 5798 5799 5799 5799 5799 5800 5799 5799 5800 5800 5800 5800 5800 5800 5800 5800 5800 5799 5799 5799 5799 5799 5799 5799
5774 5774 5774 5775 5775 5776 5777 5778 5780 5781 5782 5784 5785 5785 5786 5787 5788 5789 5789 5790 5790 5791 5791 5791 5791 5791 5791 5791 5791 5791 5791 5791 5791 5791 5791 5791 5791 5791 5790 5790 5790 5790 5790
5764 5764 5764 5765 5765 5766 5767 5768 5770 5772 5773 5775 5776 5777 5777 5778 5779 5780 5780 5781 5781 5782 5782 5782 5782 5782 5782 5782 5782 5783 5783 5782 5782 5782 5782 5782 5782 5782 5781 5781 5781 5781 5781
5755 5755 5754 5754 5755 5755 5756 5758 5760 5762 5764 5765 5767 5767 5768 5769 5770 5770 5771 5771 5772 5772 5772 5772 5773 5773 5773 5773 5773 5773 5773 5773 5773 5772 5772 5772 5772 5772 5772 5772 5772 5772 5772
5746 5745 5745 5744 5744 5744 5745 5747 5749 5751 5753 5755 5757 5758 5758 5759 5760 5760 5761 5761 5761 5761 5762 5762 5762 5762 5763 5762 5762 5762 5762 5762 5762 5762 5762 5761 5761 5762 5762 5762 5762 5762 5762
5736 5736 5735 5735 5734 5734 5735 5736 5738 5741 5742 5744 5746 5747 5748 5749 5749 5749 5750 5750 5750 5750 5750 5751 5751 5751 5751 5751 5751 5751 5751 5751 5751 5751 5750 5750 5750 5750 5750 5750 5750 5751 5751
5727 5727 5726 5726 5725 5725 5726 5727 5728 5731 5732 5734 5735 5736 5737 5737 5737 5737 5737 5738 5738 5738 5739 5739 5739 5739 5739 5739 5739 5739 5739 5739 5739 5739 5739 5738 5739 5738 5738 5738 5738 5739 5739
5718 5718 5717 5717 5717 5716 5717 5718 5719 5721 5722 5723 5724 5724 5725 5725 5725 5725 5725 5725 5725 5725 5725 5726 5726 5726 5727 5726 5726 5725 5726 5727 5727 5726 5726 5726 5726 5726 5725 5725 5725 5725 5726
5709 5709 5709 5708 5708 5708 5708 5708 5709 5709 5710 5711 5712 5713 5713 5713 5712 5712 5712 5712 5712 5712 5712 5712 5712 5712 5713 5713 5712 5711 5711 5713 5714 5714 5713 5712 5712 5712 5711 5711 5711 5711 5712
5700 5700 5700 5699 5699 5698 5698 5698 5698 5698 5698 5699 5700 5701 5700 5699 5699 5699 5698 5698 5698 5698 5698 5698 5698 5698 5698 5699 5698 5697 5697 5697 5698 5699 5700 5699 5697 5697 5697 5697 5697 5697 5697
5690 5691 5690 5690 5689 5688 5688 5687 5687 5686 5687 5687 5687 5687 5687 5687 5686 5685 5684 5683 5683 5683 5683 5683 5683 5683 5683 5684 5684 5683 5683 5683 5682 5682 5685 5685 5684 5684 5683 5682 5682 5682 5682
5682 5681 5680 5680 5679 5678 5677 5676 5675 5675 5675 5675 5675 5675 5674 5674 5673 5672 5670 5669 5669 5669 5668 5668 5668 5668 5668 5668 5669 5668 5668 5668 5668 5668 5669 5670 5670 5670 5669 5668 5667 5667 5667